EWG3PC EDDF-EDDV

Flight info

Callsign EWG3PC
Flight time 0h 35m
Altitude 22000
Route MARUN3W/25C MARUN Y153 WRB WRB1X
Aircraft A320/M-SDE3FGHIRWY/LB1

Departure

Time 2026-04-14 07:26
Airport Frankfurt Main Airport (EDDF)

Arrival

Time 2026-04-14 08:02
Airport Hannover Airport (EDDV)
Time Latitude Longitude Altitude Speed Heading
2026-04-14 06:50 50.04883 8.57441 358 ft 0 kts 217°
2026-04-14 07:12 50.04892 8.57452 363 ft 4 kts 218°
2026-04-14 07:13 50.04914 8.57477 360 ft 4 kts 213°
2026-04-14 07:13 50.04936 8.57493 358 ft 4 kts 173°
2026-04-14 07:13 50.04946 8.57488 356 ft 0 kts 115°
2026-04-14 07:13 50.04936 8.57522 357 ft 4 kts 114°
2026-04-14 07:14 50.04925 8.57560 359 ft 4 kts 114°
2026-04-14 07:14 50.04914 8.57598 359 ft 4 kts 114°
2026-04-14 07:14 50.04905 8.57630 358 ft 1 kts 114°
2026-04-14 07:19 50.04896 8.57660 361 ft 8 kts 114°
2026-04-14 07:20 50.04864 8.57777 360 ft 11 kts 114°
2026-04-14 07:20 50.04831 8.57877 361 ft 9 kts 131°
2026-04-14 07:20 50.04775 8.57921 358 ft 9 kts 159°
2026-04-14 07:20 50.04722 8.57952 362 ft 8 kts 159°
2026-04-14 07:21 50.04675 8.57979 359 ft 7 kts 159°
2026-04-14 07:21 50.04638 8.58001 360 ft 5 kts 159°
2026-04-14 07:21 50.04595 8.58026 363 ft 10 kts 158°
2026-04-14 07:21 50.04565 8.58085 362 ft 5 kts 101°
2026-04-14 07:22 50.04573 8.58147 369 ft 8 kts 70°
2026-04-14 07:22 50.04593 8.58227 369 ft 7 kts 69°
2026-04-14 07:22 50.04607 8.58288 370 ft 9 kts 70°
2026-04-14 07:22 50.04636 8.58410 371 ft 11 kts 70°
2026-04-14 07:23 50.04640 8.58426 370 ft 0 kts 70°
2026-04-14 07:24 50.04646 8.58454 373 ft 7 kts 70°
2026-04-14 07:24 50.04652 8.58527 369 ft 7 kts 109°
2026-04-14 07:24 50.04596 8.58586 372 ft 13 kts 159°
2026-04-14 07:24 50.04515 8.58621 371 ft 11 kts 188°
2026-04-14 07:25 50.04477 8.58548 370 ft 0 kts 250°
2026-04-14 07:25 50.04472 8.58527 370 ft 13 kts 250°
2026-04-14 07:25 50.04342 8.57966 365 ft 94 kts 249°
2026-04-14 07:26 50.04040 8.56702 357 ft 153 kts 250°
2026-04-14 07:26 50.03632 8.55014 754 ft 172 kts 248°
2026-04-14 07:26 50.03182 8.53267 1504 ft 177 kts 248°
2026-04-14 07:26 50.02695 8.51398 1936 ft 198 kts 248°
2026-04-14 07:27 50.02015 8.49517 2549 ft 208 kts 231°
2026-04-14 07:27 50.00821 8.48176 3115 ft 220 kts 200°
2026-04-14 07:27 49.99307 8.47751 3779 ft 223 kts 187°
2026-04-14 07:27 49.97763 8.47440 4637 ft 223 kts 188°
2026-04-14 07:28 49.96235 8.47104 5539 ft 222 kts 192°
2026-04-14 07:28 49.94692 8.46453 6088 ft 241 kts 197°
2026-04-14 07:28 49.93030 8.45676 6724 ft 254 kts 201°
2026-04-14 07:28 49.91552 8.44214 7522 ft 255 kts 230°
2026-04-14 07:29 49.90731 8.41862 8411 ft 254 kts 258°
2026-04-14 07:29 49.90736 8.39141 9339 ft 256 kts 285°
2026-04-14 07:29 49.91608 8.36729 10213 ft 263 kts 314°
2026-04-14 07:29 49.93166 8.35202 10987 ft 272 kts 334°
2026-04-14 07:30 49.94981 8.33998 11356 ft 295 kts 335°
2026-04-14 07:30 49.96957 8.32729 11639 ft 320 kts 335°
2026-04-14 07:30 49.99076 8.31379 12081 ft 336 kts 335°
2026-04-14 07:30 50.01258 8.29998 12805 ft 342 kts 338°
2026-04-14 07:31 50.03591 8.29078 13571 ft 350 kts 350°
2026-04-14 07:31 50.06017 8.28954 14273 ft 357 kts
2026-04-14 07:31 50.08477 8.29676 14936 ft 364 kts 16°
2026-04-14 07:31 50.10890 8.30929 15611 ft 367 kts 17°
2026-04-14 07:32 50.13356 8.32223 16291 ft 371 kts 18°
2026-04-14 07:32 50.15789 8.33502 16955 ft 376 kts 18°
2026-04-14 07:32 50.18281 8.34812 17636 ft 380 kts 18°
2026-04-14 07:32 50.20794 8.36137 18331 ft 384 kts 18°
2026-04-14 07:33 50.23338 8.37478 18961 ft 387 kts 18°
2026-04-14 07:33 50.25903 8.38831 19556 ft 391 kts 18°
2026-04-14 07:33 50.28488 8.40195 20139 ft 394 kts 18°
2026-04-14 07:34 50.36328 8.44425 21803 ft 404 kts 18°
2026-04-14 07:34 50.38995 8.45892 22088 ft 407 kts 18°
2026-04-14 07:34 50.41644 8.47346 22138 ft 399 kts 18°
2026-04-14 07:35 50.44247 8.48772 22152 ft 395 kts 18°
2026-04-14 07:35 50.46837 8.50191 22152 ft 394 kts 18°
2026-04-14 07:35 50.49432 8.51562 22149 ft 393 kts 17°
2026-04-14 07:35 50.52043 8.52843 22148 ft 393 kts 16°
2026-04-14 07:36 50.54626 8.54055 22150 ft 393 kts 15°
2026-04-14 07:36 50.57254 8.55270 22148 ft 394 kts 15°
2026-04-14 07:36 50.59884 8.56494 22144 ft 395 kts 15°
2026-04-14 07:36 50.62515 8.57732 22146 ft 395 kts 15°
2026-04-14 07:37 50.65149 8.58984 22143 ft 395 kts 16°
2026-04-14 07:37 50.67777 8.60247 22133 ft 395 kts 16°
2026-04-14 07:37 50.70400 8.61516 22135 ft 395 kts 16°
2026-04-14 07:37 50.73029 8.62791 22136 ft 395 kts 16°
2026-04-14 07:38 50.75655 8.64064 22127 ft 395 kts 16°
2026-04-14 07:38 50.78284 8.65335 22126 ft 395 kts 16°
2026-04-14 07:38 50.80873 8.66591 22125 ft 395 kts 16°
2026-04-14 07:38 50.83486 8.67930 22124 ft 395 kts 18°
2026-04-14 07:39 50.86063 8.69442 22118 ft 395 kts 20°
2026-04-14 07:39 50.88612 8.71071 22122 ft 396 kts 22°
2026-04-14 07:39 50.91153 8.72757 22125 ft 396 kts 22°
2026-04-14 07:39 50.93693 8.74444 22125 ft 396 kts 22°
2026-04-14 07:40 50.96235 8.76115 22119 ft 396 kts 21°
2026-04-14 07:40 50.98783 8.77764 22123 ft 395 kts 21°
2026-04-14 07:40 51.01299 8.79372 22126 ft 395 kts 21°
2026-04-14 07:40 51.03850 8.80990 22118 ft 396 kts 21°
2026-04-14 07:41 51.06413 8.82615 22120 ft 396 kts 21°
2026-04-14 07:41 51.08969 8.84238 22122 ft 396 kts 21°
2026-04-14 07:41 51.11529 8.85869 22121 ft 396 kts 21°
2026-04-14 07:41 51.14086 8.87506 22122 ft 396 kts 21°
2026-04-14 07:42 51.16645 8.89149 22118 ft 397 kts 21°
2026-04-14 07:42 51.19207 8.90797 22116 ft 397 kts 21°
2026-04-14 07:42 51.21766 8.92446 22120 ft 397 kts 21°
2026-04-14 07:42 51.24328 8.94099 22127 ft 397 kts 21°
2026-04-14 07:43 51.26856 8.95727 22120 ft 398 kts 21°
2026-04-14 07:43 51.29423 8.97378 22120 ft 398 kts 21°
2026-04-14 07:43 51.31994 8.99028 22116 ft 398 kts 21°
2026-04-14 07:43 51.34568 9.00681 22111 ft 398 kts 21°
2026-04-14 07:44 51.37139 9.02339 22111 ft 398 kts 21°
2026-04-14 07:44 51.39706 9.04004 22109 ft 399 kts 21°
2026-04-14 07:44 51.42274 9.05677 22111 ft 399 kts 21°
2026-04-14 07:44 51.44847 9.07353 22113 ft 399 kts 21°
2026-04-14 07:45 51.47383 9.09005 22118 ft 399 kts 21°
2026-04-14 07:45 51.49936 9.10703 21961 ft 394 kts 25°
2026-04-14 07:45 51.52295 9.12843 21698 ft 387 kts 32°
2026-04-14 07:45 51.54556 9.15160 21440 ft 384 kts 32°
2026-04-14 07:46 51.56810 9.17458 21174 ft 383 kts 32°
2026-04-14 07:46 51.59056 9.19743 20916 ft 381 kts 32°
2026-04-14 07:46 51.61291 9.22019 20659 ft 380 kts 32°
2026-04-14 07:46 51.63519 9.24291 20408 ft 378 kts 32°
2026-04-14 07:47 51.65734 9.26556 20158 ft 377 kts 32°
2026-04-14 07:47 51.67917 9.28794 19932 ft 376 kts 32°
2026-04-14 07:47 51.70117 9.31056 19675 ft 374 kts 32°
2026-04-14 07:47 51.72296 9.33302 19260 ft 371 kts 32°
2026-04-14 07:48 51.74469 9.35546 18814 ft 370 kts 32°
2026-04-14 07:48 51.76635 9.37783 18364 ft 370 kts 32°
2026-04-14 07:48 51.78796 9.40016 17886 ft 368 kts 32°
2026-04-14 07:48 51.80945 9.42239 17454 ft 366 kts 32°
2026-04-14 07:49 51.83086 9.44449 17026 ft 364 kts 32°
2026-04-14 07:49 51.85213 9.46644 16586 ft 362 kts 32°
2026-04-14 07:49 51.87305 9.48808 16176 ft 361 kts 32°
2026-04-14 07:49 51.89418 9.50997 15748 ft 360 kts 32°
2026-04-14 07:50 51.91524 9.53188 15329 ft 360 kts 32°
2026-04-14 07:50 51.93626 9.55382 14899 ft 359 kts 32°
2026-04-14 07:50 51.95725 9.57574 14472 ft 359 kts 32°
2026-04-14 07:50 51.97821 9.59763 14052 ft 359 kts 32°
2026-04-14 07:51 51.99918 9.61957 13596 ft 358 kts 32°
2026-04-14 07:51 52.02004 9.64141 13153 ft 356 kts 32°
2026-04-14 07:51 52.04049 9.66282 12710 ft 353 kts 32°
2026-04-14 07:51 52.06107 9.68439 12281 ft 350 kts 32°
2026-04-14 07:52 52.08147 9.70575 11859 ft 348 kts 32°
2026-04-14 07:52 52.10175 9.72700 11424 ft 346 kts 32°
2026-04-14 07:52 52.12186 9.74814 10994 ft 343 kts 32°
2026-04-14 07:52 52.14188 9.76922 10551 ft 341 kts 32°
2026-04-14 07:53 52.16169 9.79011 10123 ft 339 kts 31°
2026-04-14 07:53 52.18143 9.81089 9645 ft 335 kts 31°
2026-04-14 07:53 52.20057 9.83108 9155 ft 320 kts 31°
2026-04-14 07:53 52.21859 9.85015 8690 ft 306 kts 31°
2026-04-14 07:54 52.23609 9.86871 8224 ft 294 kts 31°
2026-04-14 07:54 52.25301 9.88651 7767 ft 286 kts 29°
2026-04-14 07:54 52.27020 9.90293 7313 ft 286 kts 26°
2026-04-14 07:54 52.28767 9.91848 6877 ft 286 kts 25°
2026-04-14 07:55 52.30521 9.93372 6415 ft 285 kts 26°
2026-04-14 07:55 52.32270 9.94890 5928 ft 282 kts 26°
2026-04-14 07:55 52.33939 9.96355 5471 ft 270 kts 26°
2026-04-14 07:55 52.35550 9.97789 5020 ft 258 kts 26°
2026-04-14 07:56 52.37094 9.99173 4599 ft 246 kts 26°
2026-04-14 07:56 52.38526 10.00466 4520 ft 227 kts 25°
2026-04-14 07:56 52.39869 10.01675 4476 ft 216 kts 25°
2026-04-14 07:56 52.41186 10.02818 4375 ft 214 kts 19°
2026-04-14 07:57 52.42632 10.03086 4016 ft 208 kts 345°
2026-04-14 07:57 52.43858 10.01998 3868 ft 199 kts 314°
2026-04-14 07:57 52.44517 10.00059 3695 ft 197 kts 284°
2026-04-14 07:57 52.44629 9.97850 3470 ft 198 kts 276°
2026-04-14 07:58 52.44690 9.95592 3204 ft 200 kts 277°
2026-04-14 07:58 52.44757 9.93282 2944 ft 205 kts 277°
2026-04-14 07:58 52.44825 9.90973 2663 ft 201 kts 277°
2026-04-14 07:58 52.44891 9.88719 2385 ft 194 kts 276°
2026-04-14 07:59 52.44953 9.86610 2143 ft 176 kts 276°
2026-04-14 07:59 52.45008 9.84706 1910 ft 158 kts 276°
2026-04-14 07:59 52.45058 9.83028 1695 ft 139 kts 276°
2026-04-14 07:59 52.45103 9.81504 1505 ft 131 kts 276°
2026-04-14 08:00 52.45147 9.80033 1323 ft 128 kts 276°
2026-04-14 08:00 52.45179 9.78591 1158 ft 126 kts 275°
2026-04-14 08:00 52.45234 9.77168 904 ft 127 kts 276°
2026-04-14 08:00 52.45273 9.75736 737 ft 125 kts 274°
2026-04-14 08:01 52.45316 9.74305 596 ft 126 kts 273°
2026-04-14 08:01 52.45348 9.72879 429 ft 126 kts 273°
2026-04-14 08:01 52.45395 9.71379 285 ft 133 kts 272°
2026-04-14 08:01 52.45427 9.69907 184 ft 118 kts 272°
2026-04-14 08:02 52.45452 9.69032 185 ft 33 kts 273°
2026-04-14 08:02 52.45468 9.68603 182 ft 40 kts 274°
2026-04-14 08:02 52.45486 9.68289 181 ft 20 kts 292°
2026-04-14 08:02 52.45607 9.68258 179 ft 19 kts
2026-04-14 08:03 52.45641 9.68400 179 ft 14 kts 93°
2026-04-14 08:03 52.45636 9.68579 179 ft 19 kts 92°
2026-04-14 08:03 52.45633 9.68785 179 ft 17 kts 91°
2026-04-14 08:03 52.45626 9.68977 179 ft 16 kts 92°
2026-04-14 08:04 52.45622 9.69156 179 ft 15 kts 92°
2026-04-14 08:04 52.45618 9.69323 179 ft 14 kts 94°
2026-04-14 08:04 52.45613 9.69477 179 ft 13 kts 92°
2026-04-14 08:04 52.45609 9.69620 179 ft 12 kts 93°
2026-04-14 08:05 52.45605 9.69751 179 ft 11 kts 92°
2026-04-14 08:05 52.45646 9.69829 179 ft 9 kts 10°
2026-04-14 08:05 52.45706 9.69835 179 ft 8 kts
2026-04-14 08:05 52.45745 9.69876 179 ft 6 kts 50°
2026-04-14 08:06 52.45768 9.69923 179 ft 2 kts 51°
2026-04-14 08:06 52.45773 9.69934 179 ft 1 kts 51°
2026-04-14 08:06 52.45774 9.69936 179 ft 0 kts 51°
2026-04-14 08:06 52.45776 9.69940 179 ft 0 kts 51°
2026-04-14 08:07 52.45776 9.69941 179 ft 0 kts 51°